time_stamp(utc),avg(mph),gust(mph),direction(deg),12m_air_temp(f),sonic_u(cm/s),sonic_v(cm/s),sonic_w(cm/s),pressure,2m_air_temp(f),pyranometer(W/m^2)
"2020-11-16 00:02:39+00",31.3,40.3,,63.9,-301,-1344,-6,1007.58,63.5,0
"2020-11-16 00:07:39+00",34.9,41.9,,64,-295,-1501,-11,1007.5,63.5,0
"2020-11-16 00:12:39+00",32.1,42.1,,64.1,-314,-1356,-10,1007.41,63.6,0
"2020-11-16 00:17:39+00",33.4,43.4,,64.3,-326,-1436,-11,1007.38,63.8,0
"2020-11-16 00:22:39+00",29.1,46.1,,64.2,-292,-1273,19,1007.24,63.8,0
"2020-11-16 00:27:39+00",31.1,39.1,,64.3,-270,-1338,26,1007.22,63.7,0
"2020-11-16 00:32:39+00",32.0,43.0,,64.1,-336,-1378,-9,1007.08,63.6,0
"2020-11-16 00:37:39+00",37.9,46.9,,64.4,-379,-1588,-6,1006.97,63.9,0
"2020-11-16 00:42:39+00",32.4,44.4,,64.4,-266,-1365,8,1006.97,63.9,0
"2020-11-16 00:47:39+00",34.7,44.7,,64.4,-355,-1461,13,1006.73,63.9,0
"2020-11-16 00:52:39+00",30.2,45.2,,64.3,-234,-1274,-1,1006.62,63.9,0
"2020-11-16 00:57:39+00",37.4,43.4,,64.4,-403,-1570,-19,1006.47,63.9,0
"2020-11-16 01:02:39+00",40.5,49.5,,64.5,-384,-1719,-33,1006.4,64,0
"2020-11-16 01:07:39+00",32.8,41.8,,64.4,-272,-1391,-14,1006.49,63.9,0
"2020-11-16 01:12:39+00",34.6,43.6,,64.4,-395,-1511,5,1006.36,63.9,0
"2020-11-16 01:17:39+00",33.7,44.7,,64.4,-322,-1438,-6,1006.18,63.9,0
"2020-11-16 01:22:39+00",33.0,45.0,,64.3,-342,-1383,0,1005.98,63.8,0
"2020-11-16 01:27:39+00",32.9,41.9,,64.3,-398,-1444,2,1005.9,63.8,0
"2020-11-16 01:32:39+00",30.8,44.8,,64.2,-372,-1320,37,1006.01,63.7,0
"2020-11-16 01:37:39+00",30.9,42.9,,64.3,-339,-1304,26,1006.08,63.8,0
"2020-11-16 01:42:39+00",34.9,43.9,,64.5,-454,-1475,6,1006.11,63.9,0
"2020-11-16 01:47:39+00",40.2,51.2,,64.8,-473,-1703,-20,1005.75,64.1,0
"2020-11-16 01:52:39+00",43.1,52.1,,64.7,-538,-1800,-7,1005.67,64,0
"2020-11-16 01:57:39+00",36.6,42.6,,64.7,-538,-1502,27,1005.89,64,0
"2020-11-16 02:02:39+00",40.4,48.4,,64.7,-618,-1650,-10,1005.96,64,0
"2020-11-16 02:07:39+00",32.6,38.6,,64.4,-574,-1326,-3,1006.24,63.8,0
"2020-11-16 02:12:39+00",41.3,47.3,,64.6,-672,-1712,-2,1005.88,63.9,0
"2020-11-16 02:17:39+00",40.7,48.7,,64.4,-527,-1692,-11,1005.36,63.4,0
"2020-11-16 02:22:39+00",44.2,50.2,,53.5,-1333,-233,676,1008.82,60.4,0
"2020-11-16 02:27:39+00",30.2,37.2,,52.2,-1298,670,-7,1008.73,55.6,0
"2020-11-16 02:32:39+00",27.2,30.2,,52.6,-1570,-636,-346,1009.34,54.2,0
"2020-11-16 02:37:39+00",21.3,25.3,,52.7,-889,395,67,1008.88,53.4,0
"2020-11-16 02:42:39+00",22.6,26.6,,54,-926,447,30,1008.78,53.2,0
"2020-11-16 02:47:39+00",21.2,24.2,,54.4,-854,403,37,1009.05,53.1,0
"2020-11-16 02:52:39+00",16.3,18.3,,54.5,-688,262,31,1009.31,53.1,0
"2020-11-16 02:57:39+00",16.8,19.8,,54.4,-714,277,23,1009.47,53,0
"2020-11-16 03:02:39+00",13.8,14.8,,54.4,-608,168,25,1009.47,53,0
"2020-11-16 03:07:39+00",11.9,12.9,,54.4,-517,109,27,1009.54,52.9,0
"2020-11-16 03:12:39+00",7.8,8.8,,54.4,-343,5,41,1009.61,52.9,0
"2020-11-16 03:17:39+00",8.9,9.9,,54.2,-385,-68,15,1009.77,52.9,0
"2020-11-16 03:22:39+00",9.2,10.2,,54,-413,-31,13,1009.76,52.9,0
"2020-11-16 03:27:39+00",8.7,10.7,,53.9,-375,-73,-2,1009.83,52.7,0
"2020-11-16 03:32:39+00",8.1,10.1,,53.8,-332,-111,14,1009.62,52.6,0
"2020-11-16 03:37:39+00",9.7,10.7,,53.8,-398,-242,10,1009.94,52.6,0
"2020-11-16 03:42:39+00",10.3,11.3,,53.7,-342,-287,6,1010.27,52.4,0
"2020-11-16 03:47:39+00",11.4,12.4,,53.7,-324,-383,0,1009.99,52.3,0
"2020-11-16 03:52:39+00",7.4,8.4,,53.5,-188,-272,8,1009.84,52.2,0
"2020-11-16 03:57:39+00",11.6,12.6,,53.4,-334,-392,-1,1010.12,52.1,0
"2020-11-16 04:02:39+00",11.3,14.3,,53.3,-343,-328,18,1010.22,52,0
"2020-11-16 04:07:39+00",11.4,13.4,,53.3,-400,-315,21,1010.44,51.9,0
"2020-11-16 04:12:39+00",9.8,12.8,,53.3,-395,-223,21,1010.26,51.9,0
"2020-11-16 04:17:39+00",11.3,13.3,,53.4,-389,-299,37,1010.51,51.8,0
"2020-11-16 04:22:39+00",11.0,13.0,,53.4,-412,-290,6,1010.28,51.6,0
"2020-11-16 04:27:39+00",11.2,12.2,,53.3,-413,-299,14,1010.19,51.5,0
"2020-11-16 04:32:39+00",11.3,13.3,,53.3,-332,-345,18,1010.09,51.4,0
"2020-11-16 04:37:39+00",11.8,13.8,,53.5,-335,-375,12,1010.24,51.5,0
"2020-11-16 04:42:39+00",10.9,11.9,,53.6,-366,-301,4,1009.89,51.8,0
"2020-11-16 04:47:39+00",12.7,14.7,,53.8,-429,-345,18,1010.14,51.9,0
"2020-11-16 04:52:39+00",11.9,13.9,,53.7,-393,-336,19,1010,52.1,0
"2020-11-16 04:57:39+00",11.3,13.3,,53.6,-413,-299,19,1009.85,52.2,0
"2020-11-16 05:02:39+00",10.1,13.1,,53.6,-412,-186,18,1009.61,52.2,0
"2020-11-16 05:07:39+00",9.1,10.1,,53.4,-373,-152,16,1009.37,52.1,0
"2020-11-16 05:12:39+00",8.5,9.5,,53.3,-377,-37,7,1009.28,52,0
"2020-11-16 05:17:39+00",9.5,11.5,,53.3,-410,-61,6,1009.42,51.8,0
"2020-11-16 05:22:39+00",9.8,11.8,,53.2,-441,27,19,1009.38,51.7,0
"2020-11-16 05:27:39+00",13.8,15.8,,53.5,-619,102,34,1009.63,51.6,0
"2020-11-16 05:32:39+00",12.8,14.8,,53.6,-562,99,42,1009.79,51.5,0
"2020-11-16 05:37:39+00",13.1,14.1,,53.6,-594,53,21,1010.25,51.6,0
"2020-11-16 05:42:39+00",9.8,10.8,,53.4,-442,-21,21,1010.56,51.7,0
"2020-11-16 05:47:39+00",10.8,13.8,,53.3,-481,31,35,1010.74,51.7,0
"2020-11-16 05:52:39+00",12.3,15.3,,53.5,-552,72,58,1010.75,51.5,0
"2020-11-16 05:57:39+00",13.5,17.5,,53.7,-593,83,58,1010.94,51.5,0
"2020-11-16 06:02:39+00",14.0,18.0,,53.7,-642,-10,40,1011.1,51.4,0
"2020-11-16 06:07:39+00",11.8,15.8,,53.8,-517,-22,26,1011.24,51.4,0
"2020-11-16 06:12:39+00",12.7,16.7,,53.8,-539,-181,26,1011.67,51.4,0
"2020-11-16 06:17:39+00",10.3,12.3,,53.7,-425,-195,7,1011.79,51.4,0
"2020-11-16 06:22:39+00",11.4,12.4,,53.8,-477,-133,17,1011.86,51.4,0
"2020-11-16 06:27:39+00",13.9,16.9,,54,-621,18,41,1011.6,51.4,0
"2020-11-16 06:32:39+00",13.4,15.4,,54.3,-604,76,31,1011.54,51.5,0
"2020-11-16 06:37:39+00",12.9,14.9,,54.3,-569,-85,11,1012.07,51.8,0
"2020-11-16 06:42:39+00",12.4,14.4,,54.2,-557,-45,12,1011.94,51.7,0
"2020-11-16 06:47:39+00",12.4,14.4,,54.4,-564,65,33,1011.78,51.9,0
"2020-11-16 06:52:39+00",14.7,17.7,,54.3,-665,75,7,1012.13,52,0
"2020-11-16 06:57:39+00",13.3,15.3,,54.2,-597,48,9,1012.02,52.1,0
"2020-11-16 07:02:39+00",10.6,11.6,,53.9,-481,-4,8,1012,52.1,0
"2020-11-16 07:07:39+00",10.3,11.3,,53.6,-451,-9,22,1012.07,52,0
"2020-11-16 07:12:39+00",10.3,11.3,,53.5,-458,-26,10,1012.03,51.8,0
"2020-11-16 07:17:39+00",10.9,12.9,,53.5,-488,0,7,1012.03,51.7,0
"2020-11-16 07:22:39+00",11.3,13.3,,53.4,-496,-1,19,1012,51.6,0
"2020-11-16 07:27:39+00",11.1,12.1,,53.3,-491,-55,18,1012.09,51.6,0
"2020-11-16 07:32:39+00",12.6,13.6,,53.3,-554,-27,21,1012.13,51.5,0
"2020-11-16 07:37:39+00",11.6,12.6,,53.2,-511,-55,7,1012.17,51.3,0
"2020-11-16 07:42:39+00",10.6,12.6,,53,-471,-36,12,1012.24,51.2,0
"2020-11-16 07:47:39+00",10.3,11.3,,52.9,-459,-21,21,1012.19,51.1,0
"2020-11-16 07:52:39+00",10.1,12.1,,52.8,-417,-135,14,1012.39,50.9,0
"2020-11-16 07:57:39+00",13.2,15.2,,52.7,-576,85,22,1012.43,50.8,0
"2020-11-16 08:02:39+00",15.4,17.4,,53,-700,65,22,1012.48,50.8,0
"2020-11-16 08:07:39+00",18.9,22.9,,53.2,-833,114,42,1012.63,51,0
"2020-11-16 08:12:39+00",20.3,23.3,,53.2,-911,198,44,1012.55,51.1,0
"2020-11-16 08:17:39+00",19.4,21.4,,53,-861,169,49,1012.55,51.1,0
"2020-11-16 08:22:39+00",17.0,20.0,,52.7,-769,162,46,1012.61,51,0
"2020-11-16 08:27:39+00",16.2,20.2,,52.6,-705,175,41,1012.69,50.9,0
"2020-11-16 08:32:39+00",16.3,18.3,,52.5,-735,90,34,1012.72,50.8,0
"2020-11-16 08:37:39+00",14.8,18.8,,52.2,-684,96,12,1012.71,50.6,0
"2020-11-16 08:42:39+00",15.1,16.1,,52.2,-668,111,24,1012.8,50.4,0
"2020-11-16 08:47:39+00",14.8,17.8,,52,-653,102,38,1012.9,50.3,0
"2020-11-16 08:52:39+00",13.6,15.6,,51.8,-621,95,27,1012.89,50.2,0
"2020-11-16 08:57:39+00",15.7,18.7,,51.7,-695,123,50,1013.04,50.1,0
"2020-11-16 09:02:39+00",13.2,15.2,,51.6,-601,15,19,1013.08,49.9,0
"2020-11-16 09:07:39+00",15.4,17.4,,51.5,-696,73,26,1013.18,49.8,0
"2020-11-16 09:12:39+00",11.8,14.8,,51.1,-502,-96,10,1013.2,49.6,0
"2020-11-16 09:17:39+00",14.5,16.5,,50.9,-640,-57,7,1013.34,49.3,0
"2020-11-16 09:22:39+00",16.0,18.0,,51.4,-695,-96,18,1013.38,49.2,0
"2020-11-16 09:27:39+00",15.2,16.2,,51.4,-665,-79,1,1013.28,49.2,0
"2020-11-16 09:32:39+00",14.9,15.9,,51.2,-656,-63,13,1013.53,49.2,0
"2020-11-16 09:37:39+00",13.0,14.0,,50.9,-537,-146,23,1013.58,49.1,0
"2020-11-16 09:42:39+00",11.8,14.8,,50.7,-487,-145,16,1013.64,48.9,0
"2020-11-16 09:47:39+00",12.9,15.9,,50.6,-553,-137,18,1013.71,48.7,0
"2020-11-16 09:52:39+00",12.6,13.6,,50.3,-540,-112,8,1013.72,48.6,0
"2020-11-16 09:57:39+00",12.2,14.2,,50.1,-517,-104,10,1013.76,48.4,0
"2020-11-16 10:02:39+00",10.9,12.9,,50,-444,-198,22,1013.81,48.3,0
"2020-11-16 10:07:39+00",10.8,11.8,,49.8,-461,-245,3,1013.87,48,0
"2020-11-16 10:12:39+00",13.4,15.4,,50,-545,-197,16,1013.92,47.8,0
"2020-11-16 10:17:39+00",13.1,14.1,,50.1,-553,-142,11,1014.01,47.9,0
"2020-11-16 10:22:39+00",14.0,16.0,,49.9,-611,-67,17,1014.06,48,0
"2020-11-16 10:27:39+00",13.8,15.8,,50.1,-598,-82,27,1014.06,48.2,0
"2020-11-16 10:32:39+00",14.1,16.1,,50,-610,-81,11,1014.17,48.3,0
"2020-11-16 10:37:39+00",13.5,15.5,,49.8,-583,-95,18,1014.13,48.3,0
"2020-11-16 10:42:39+00",15.6,17.6,,50.1,-665,-160,10,1014.2,48.3,0
"2020-11-16 10:47:39+00",13.3,15.3,,50,-582,-63,12,1014.36,48.4,0
"2020-11-16 10:52:39+00",13.7,16.7,,49.6,-589,-125,44,1014.45,48.3,0
"2020-11-16 10:57:39+00",13.8,14.8,,49.5,-614,-26,14,1014.52,48.2,0
"2020-11-16 11:02:39+00",13.1,14.1,,49.4,-550,-132,0,1014.59,48.2,0
"2020-11-16 11:07:39+00",12.9,15.9,,49.2,-551,-117,3,1014.52,48.1,0
"2020-11-16 11:12:39+00",12.7,14.7,,49.2,-564,-66,23,1014.58,48,0
"2020-11-16 11:17:39+00",14.4,17.4,,49.3,-630,-21,16,1014.49,48,0
"2020-11-16 11:22:39+00",17.9,20.9,,50.1,-809,74,49,1014.49,48.3,0
"2020-11-16 11:27:39+00",15.2,18.2,,50.1,-680,1,45,1014.61,48.7,0
"2020-11-16 11:32:39+00",18.5,20.5,,50,-828,91,22,1014.68,49,0
"2020-11-16 11:37:39+00",15.8,17.8,,49.8,-709,31,22,1014.79,49,0
"2020-11-16 11:42:39+00",15.8,18.8,,49.4,-727,-24,31,1014.83,48.8,0
"2020-11-16 11:47:39+00",13.8,15.8,,49.2,-622,-36,28,1014.91,48.6,0
"2020-11-16 11:52:39+00",13.3,15.3,,49.1,-600,-3,23,1015.01,48.5,0
"2020-11-16 11:57:39+00",14.9,17.9,,49.1,-669,-3,17,1015.12,48.3,0
"2020-11-16 12:02:39+00",14.4,16.4,,49.2,-648,38,16,1015.01,48.4,0
"2020-11-16 12:07:39+00",13.3,15.3,,49.3,-594,-27,32,1015.05,48.5,0
"2020-11-16 12:12:39+00",13.2,17.2,,49.1,-567,-63,2,1014.98,48.5,0
"2020-11-16 12:17:39+00",13.0,16.0,,49.1,-566,-90,16,1015.04,48.5,0
"2020-11-16 12:22:39+00",12.4,15.4,,49,-534,-73,20,1015.14,48.7,0
"2020-11-16 12:27:39+00",12.2,15.2,,48.9,-510,-88,27,1015.15,49,0
"2020-11-16 12:32:39+00",12.5,14.5,,48.9,-547,-52,28,1015.09,49.2,0
"2020-11-16 12:37:39+00",12.6,15.6,,49,-566,-18,27,1015.13,49.7,0
"2020-11-16 12:42:39+00",14.0,15.0,,49.2,-621,-24,10,1015.2,50.2,0
"2020-11-16 12:47:39+00",12.5,15.5,,49.4,-527,-68,36,1015.24,50.6,0
"2020-11-16 12:52:39+00",15.5,18.5,,49.7,-691,-59,10,1015.34,51,0
"2020-11-16 12:57:39+00",16.2,18.2,,49.9,-690,-118,1,1015.32,51.4,0
"2020-11-16 13:02:39+00",14.0,15.0,,49.9,-583,-165,15,1015.32,51.9,0
"2020-11-16 13:07:39+00",13.7,15.7,,50,-577,-125,30,1015.42,52.4,0
"2020-11-16 13:12:39+00",13.4,16.4,,50.1,-560,-138,27,1015.36,52.8,0
"2020-11-16 13:17:39+00",13.5,15.5,,50.2,-592,-76,37,1015.23,53,0
"2020-11-16 13:22:39+00",15.6,18.6,,50.2,-690,-48,-5,1015.29,53,0
"2020-11-16 13:27:39+00",12.8,15.8,,50.3,-550,-94,45,1015.27,53,0
"2020-11-16 13:32:39+00",15.2,17.2,,50.3,-626,-255,11,1015.3,53.4,0
"2020-11-16 13:37:39+00",15.0,19.0,,50.2,-619,-206,40,1015.22,53.8,0
"2020-11-16 13:42:39+00",14.5,16.5,,50.3,-628,-91,41,1015.29,53.7,0
"2020-11-16 13:47:39+00",15.6,17.6,,50.2,-673,-123,27,1015.37,53.6,0
"2020-11-16 13:52:39+00",16.5,18.5,,50.4,-710,-90,7,1015.3,53.3,0
"2020-11-16 13:57:39+00",16.7,18.7,,50.8,-736,-100,26,1015.29,53.2,0
"2020-11-16 14:02:39+00",17.0,19.0,,51.1,-722,-136,52,1015.29,53.4,0
"2020-11-16 14:07:39+00",15.7,19.7,,51.4,-682,-113,44,1015.24,53.6,0
"2020-11-16 14:12:39+00",16.9,20.9,,51.4,-735,-33,6,1015.14,53.6,0
"2020-11-16 14:17:39+00",17.9,20.9,,51.6,-834,58,30,1015.27,53.5,0
"2020-11-16 14:22:39+00",17.3,21.3,,51.8,-788,56,33,1015.13,53.5,0
"2020-11-16 14:27:39+00",23.4,27.4,,51.8,-1043,93,54,1015.15,53.5,0
"2020-11-16 14:32:39+00",21.4,25.4,,51.9,-957,65,38,1015.18,53.5,0
"2020-11-16 14:37:39+00",18.4,21.4,,52.1,-829,46,21,1015.23,53.6,0
"2020-11-16 14:42:39+00",18.2,22.2,,52.3,-812,-31,43,1015.33,53.9,0
"2020-11-16 14:47:39+00",23.9,27.9,,52.3,-1068,273,47,1015.39,54,0
"2020-11-16 14:52:39+00",21.5,25.5,,52.4,-977,21,35,1015.35,54.1,0
"2020-11-16 14:57:39+00",23.6,26.6,,52.4,-1045,303,47,1015.33,54.2,0
"2020-11-16 15:02:39+00",22.4,24.4,,52.4,-965,317,57,1015.42,54.2,0
"2020-11-16 15:07:39+00",23.3,26.3,,52.4,-1042,71,18,1015.34,54.2,0
"2020-11-16 15:12:39+00",23.1,26.1,,52.6,-1023,260,54,1015.3,54.4,0
"2020-11-16 15:17:39+00",25.0,27.0,,52.6,-1114,231,61,1015.37,54.5,0
"2020-11-16 15:22:39+00",23.5,27.5,,52.6,-909,541,44,1015.35,54.4,0
"2020-11-16 15:27:39+00",20.5,22.5,,52.7,-887,270,19,1015.51,54.5,0
"2020-11-16 15:32:39+00",19.0,22.0,,52.7,-842,211,42,1015.6,54.7,0
"2020-11-16 15:37:39+00",17.8,21.8,,52.9,-782,252,77,1015.62,54.9,0
"2020-11-16 15:42:39+00",18.6,21.6,,53,-727,458,57,1015.49,55.2,0
"2020-11-16 15:47:39+00",21.3,24.3,,53,-830,476,47,1015.4,54.9,0
"2020-11-16 15:52:39+00",18.6,21.6,,53,-795,316,45,1015.52,54.8,0
"2020-11-16 15:57:39+00",20.8,23.8,,52.9,-798,480,44,1015.53,54.9,0
"2020-11-16 16:02:39+00",18.9,22.9,,53.1,-763,478,52,1015.63,54.9,0
"2020-11-16 16:07:39+00",20.0,23.0,,53.2,-821,377,32,1015.69,55.1,0
"2020-11-16 16:12:39+00",19.6,22.6,,53.3,-770,481,51,1015.66,55.3,0
"2020-11-16 16:17:39+00",21.2,23.2,,53.3,-940,314,36,1015.56,55.4,0
"2020-11-16 16:22:39+00",20.4,23.4,,53.5,-845,350,45,1015.46,55.6,0
"2020-11-16 16:27:39+00",20.1,24.1,,53.5,-867,294,29,1015.44,55.6,0
"2020-11-16 16:32:39+00",17.5,19.5,,53.4,-770,202,35,1015.42,55.9,0
"2020-11-16 16:37:39+00",16.6,19.6,,53.6,-680,338,14,1015.35,56.1,0
"2020-11-16 16:42:39+00",17.9,20.9,,53.6,-792,113,21,1015.47,56.3,0
"2020-11-16 16:47:39+00",15.2,17.2,,53.7,-655,225,41,1015.4,56.6,0
"2020-11-16 16:52:39+00",18.8,21.8,,53.9,-803,296,28,1015.29,56.9,0
"2020-11-16 16:57:39+00",16.2,18.2,,53.9,-730,157,50,1015.22,57,0
"2020-11-16 17:02:39+00",17.0,21.0,,54,-747,88,29,1015.16,57.1,0
"2020-11-16 17:07:39+00",19.1,21.1,,54.1,-866,109,23,1015.12,57.2,0
"2020-11-16 17:12:39+00",18.3,21.3,,54.1,-818,221,44,1015.06,57.2,0
"2020-11-16 17:17:39+00",22.2,25.2,,54.3,-994,13,92,1014.92,57.4,0
"2020-11-16 17:22:39+00",17.6,20.6,,54.3,-782,157,54,1015.02,57.3,0
"2020-11-16 17:27:39+00",16.5,19.5,,54.5,-746,-9,61,1015.03,57.5,0
"2020-11-16 17:32:39+00",21.9,24.9,,54.5,-914,-256,28,1014.92,57.7,0
"2020-11-16 17:37:39+00",16.2,17.2,,54.6,-713,161,62,1014.84,58.1,0
"2020-11-16 17:42:39+00",17.9,20.9,,54.6,-803,154,34,1014.77,57.9,0
"2020-11-16 17:47:39+00",16.0,18.0,,54.8,-641,313,44,1014.72,57.8,0
"2020-11-16 17:52:39+00",15.2,18.2,,54.9,-657,260,37,1014.64,57.8,0
"2020-11-16 17:57:39+00",15.5,17.5,,54.9,-635,258,14,1014.64,57.8,0
"2020-11-16 18:02:39+00",16.5,17.5,,54.7,-733,175,34,1014.68,57.8,0
"2020-11-16 18:07:39+00",15.2,17.2,,54.7,-680,-20,12,1014.81,57.8,0
"2020-11-16 18:12:39+00",15.2,17.2,,54.8,-680,42,9,1014.72,57.9,0
"2020-11-16 18:17:39+00",14.9,16.9,,55.2,-668,125,56,1014.59,58.2,0
"2020-11-16 18:22:39+00",12.7,16.7,,55,-512,284,87,1014.61,57.9,0
"2020-11-16 18:27:39+00",14.6,18.6,,54.9,-614,247,43,1014.44,57.6,0
"2020-11-16 18:32:39+00",16.3,18.3,,54.9,-724,-7,-7,1014.47,57.8,0
"2020-11-16 18:37:39+00",17.4,20.4,,55.1,-792,98,42,1014.5,58.1,0
"2020-11-16 18:42:39+00",13.0,15.0,,55,-582,-10,39,1014.52,58.3,0
"2020-11-16 18:47:39+00",14.2,17.2,,55.1,-615,167,40,1014.53,58.4,0
"2020-11-16 18:52:39+00",13.4,15.4,,55.4,-614,127,21,1014.52,58.6,0
"2020-11-16 18:57:39+00",15.9,17.9,,55.3,-689,202,21,1014.38,58.7,0
"2020-11-16 19:02:39+00",16.6,18.6,,55.2,-753,74,17,1014.34,58.6,0
"2020-11-16 19:07:39+00",12.8,14.8,,55.3,-568,101,15,1014.43,58.7,0
"2020-11-16 19:12:39+00",13.0,14.0,,55.3,-581,26,12,1014.41,58.9,0
"2020-11-16 19:17:39+00",15.7,17.7,,55.3,-675,229,28,1014.39,58.9,0
"2020-11-16 19:22:39+00",13.7,16.7,,55.5,-604,-37,20,1014.4,59,0
"2020-11-16 19:27:39+00",14.1,16.1,,55.4,-617,111,29,1014.4,59,0
"2020-11-16 19:32:39+00",16.6,18.6,,55.5,-742,135,26,1014.34,58.9,0
"2020-11-16 19:37:39+00",15.6,17.6,,55.6,-695,-30,19,1014.38,58.8,0
"2020-11-16 19:42:39+00",16.7,20.7,,55.6,-761,102,62,1014.35,58.7,0
"2020-11-16 19:47:39+00",15.7,18.7,,55.5,-693,52,53,1014.39,58.5,0
"2020-11-16 19:52:39+00",16.7,19.7,,55.6,-741,69,50,1014.48,58.4,0
"2020-11-16 19:57:39+00",15.3,18.3,,55.6,-691,-15,37,1014.42,58.3,0
"2020-11-16 20:02:39+00",16.0,19.0,,55.6,-699,115,34,1014.55,58.2,0
"2020-11-16 20:07:39+00",16.9,19.9,,55.5,-707,272,37,1014.5,57.9,0
"2020-11-16 20:12:39+00",15.8,18.8,,55.5,-690,187,27,1014.49,57.7,0
"2020-11-16 20:17:39+00",14.9,15.9,,55.6,-674,116,32,1014.46,57.7,0
"2020-11-16 20:22:39+00",17.2,19.2,,55.7,-765,85,40,1014.48,57.6,0
"2020-11-16 20:27:39+00",16.0,19.0,,55.6,-713,-23,20,1014.5,57.5,0
"2020-11-16 20:32:39+00",16.0,18.0,,55.6,-732,43,27,1014.59,57.6,0
"2020-11-16 20:37:39+00",13.3,16.3,,55.6,-590,-85,37,1014.61,57.5,0
"2020-11-16 20:42:39+00",13.2,16.2,,55.4,-549,-186,9,1014.82,57.5,0
"2020-11-16 20:47:39+00",14.3,17.3,,55.3,-605,-156,35,1014.77,57.4,0
"2020-11-16 20:52:39+00",13.5,15.5,,55.2,-569,-162,21,1014.77,57.2,0
"2020-11-16 20:57:39+00",14.5,16.5,,55.1,-634,-121,13,1014.76,57,0
"2020-11-16 21:02:39+00",14.4,15.4,,55,-640,-4,42,1014.81,56.8,0
"2020-11-16 21:07:39+00",12.3,15.3,,54.8,-549,-50,13,1014.74,56.3,0
"2020-11-16 21:12:39+00",14.1,16.1,,54.9,-605,-126,18,1014.74,55.8,0
"2020-11-16 21:17:39+00",12.0,13.0,,54.6,-523,-81,34,1014.72,55.4,0
"2020-11-16 21:22:39+00",11.4,12.4,,54.4,-482,-95,21,1014.81,55.1,0
"2020-11-16 21:27:39+00",10.9,12.9,,54.2,-470,-75,11,1014.82,54.7,0
"2020-11-16 21:32:39+00",9.9,10.9,,54.1,-419,-87,15,1014.76,54.2,0
"2020-11-16 21:37:39+00",9.8,10.8,,53.8,-418,-103,12,1014.74,53.6,0
"2020-11-16 21:42:39+00",11.6,12.6,,53.8,-502,-72,6,1014.77,53,0
"2020-11-16 21:47:39+00",10.4,11.4,,53.7,-447,-89,11,1014.82,52.6,0
"2020-11-16 21:52:39+00",10.2,11.2,,53.4,-434,-86,6,1015,52.1,0
"2020-11-16 21:57:39+00",9.8,10.8,,53.3,-383,-161,8,1014.95,51.7,0
"2020-11-16 22:02:39+00",8.9,9.9,,53,-363,-168,1,1015.12,51.2,0
"2020-11-16 22:07:39+00",9.8,10.8,,52.9,-416,-210,7,1015.19,50.6,0
"2020-11-16 22:12:39+00",11.3,12.3,,53,-463,-214,8,1015.28,50.2,0
"2020-11-16 22:17:39+00",10.9,11.9,,52.8,-454,-126,11,1015.32,50.1,0
"2020-11-16 22:22:39+00",10.7,11.7,,52.9,-459,-88,9,1015.39,50.1,0
"2020-11-16 22:27:39+00",10.5,11.5,,52.6,-415,-158,9,1015.35,49.9,0
"2020-11-16 22:32:39+00",9.4,11.4,,52.3,-388,-231,5,1015.3,49.7,0
"2020-11-16 22:37:39+00",11.5,12.5,,52.3,-477,-226,4,1015.39,49.5,0
"2020-11-16 22:42:39+00",11.1,12.1,,52.2,-456,-215,10,1015.42,49.4,0
"2020-11-16 22:47:39+00",10.0,12.0,,52.2,-430,-240,4,1015.51,49.4,0
"2020-11-16 22:52:39+00",9.8,10.8,,52.2,-423,-249,9,1015.5,49.3,0
"2020-11-16 22:57:39+00",9.7,10.7,,52.3,-406,-241,14,1015.58,49.3,0
"2020-11-16 23:02:39+00",10.8,11.8,,52.4,-455,-273,10,1015.56,49.4,0
"2020-11-16 23:07:39+00",10.8,11.8,,52.3,-403,-289,10,1015.71,49.6,0
"2020-11-16 23:12:39+00",10.7,11.7,,52.1,-329,-338,8,1015.8,49.8,0
"2020-11-16 23:17:39+00",10.2,11.2,,52,-344,-283,3,1015.84,49.9,0
"2020-11-16 23:22:39+00",10.1,12.1,,52,-413,-251,16,1015.81,49.9,0
"2020-11-16 23:27:39+00",10.1,12.1,,51.8,-420,-250,17,1015.85,50,0
"2020-11-16 23:32:39+00",10.1,11.1,,51.5,-420,-253,11,1015.96,49.9,0
"2020-11-16 23:37:39+00",10.7,11.7,,51.3,-377,-292,8,1016.03,49.7,0
"2020-11-16 23:42:39+00",10.3,12.3,,51.3,-409,-275,11,1016.14,49.6,0
"2020-11-16 23:47:39+00",10.0,12.0,,51.4,-373,-271,9,1016.08,49.5,0
"2020-11-16 23:52:39+00",9.5,10.5,,51.4,-376,-248,17,1016.16,49.4,0
"2020-11-16 23:57:39+00",9.5,10.5,,51.5,-405,-234,12,1016.2,49.3,0
